CZ-2D DEB, 44611

Orbit data source: Space-Track

CZ-2D DEB, 44611 is space debris in SSO originally from a launch on Mon, 09 Oct 2017 UTC launched from the Jiuquan Satellite Launch Center, China (JSC). Debris objects in space refer to the collection of defunct objects orbiting the Earth. Examples of debris include non-operational satellites, rocket bodies, and fragments generated from explosions, collisions, or faulty payload assembly.

Loading next visibility...
CZ-2D DEB details
Identifier
44611, 2017-060D
Orbit
SSO
Last TLE update6 hours ago
Origin
Flag of CNCASC (CN / PRC)
ManufacturerUnknown
MissionSpacecraft
Bus & MotorUnknown
MassUnknown
Launch date (UTC)
2017-10-09 (7 years ago)
Launch vehicleUnknown
Launch site
Jiuquan Satellite Launch Center, China (JSC)
Object type
Payload
Rocket body
Debris
Shape & HBRUnknown
Radar Cross SectionSmall (<0.1 m²)

Expand to show TLE details & history

TLE from 6 hours ago
0 CZ-2D DEB
1 44611U 17060D   24361.29303327  .00011068  00000-0  12088-2 0  9992
2 44611  98.1606 125.7327 0033505  82.2991 278.2027 14.87654429386939
Epoch: 2024-12-26T07:01Z
Definitive object data (Epoch: 2024-12-26T07:01:58.074Z)
Latitude-0.00003°
Longitude-75.03378°
Altitude605.028 km
Speed7.559 km/s
True Right ascension08h 22m 55s
True Declination0° 00' 00"
Sunlit
Object was in full shadow at TLE epoch
Visualization TLE readout
Latitude-2.75337°
Longitude104.8156°
Altitude613.108 km
Speed7.55 km/s
Apparent Right ascension21h 51m 42s
Apparent Declination-22° 36' 41"
Sunlit
Object is in daylight
Visualization observer readout
Local Sidereal Time12:02:59
Azimuth67.925° E
Elevation-57.322°
Doppler factor1
Orbital elements
Apogee altitude625.697 km
Perigee altitude578.921 km
Semi-major axis6,980.446 km
Eccentricity0.0033505
Inclination98.1606°
RAAN125.7327°
Arg. of periapsis82.2991°
True anomaly277.82246°
Mean anomaly278.2027°
Eccentric anomaly278.0126°
Mean motion3.7215 °/min
BSTAR0.0012088
Orbital period96.74 mins
Loading maneuver chart data...
Loading historical data...
Loading historical data...
Loading historical data...
Loading historical data...
Loading historical data...
Loading historical data...
Loading historical data...
Other satellites on launch #60 in the year 2017 (2017-10-09 UTC)

CZ-2D DEB Visibility forecast

Observer location: undefined°, undefined

Span
Click to sort rows by Start time (UTC) header in descending order
Start Az.
Max El. time (UTC)
Max El. Az.
Max El.
End time (UTC)
End Az.
5 mins2024-12-26 20:32:26.201Z56.65° ENE2024-12-26 20:34:26.201Z91.498° ESE19.252°2024-12-26 20:37:26.201Z140.959° SSE
5 mins2024-12-26 22:08:26.201Z334.581° NNW2024-12-26 22:10:26.201Z288.915° WNW26.726°2024-12-26 22:13:26.201Z233.316° WSW
6 mins2024-12-27 08:59:26.201Z196.713° SSW2024-12-27 09:02:26.201Z271.828° WNW33.369°2024-12-27 09:05:26.201Z328.887° NNW
|